| time (UTC) | temp C | wind direction | speed KPH | gust KPH | rain 1hr cm | rain 24hr cm | rain mn cm | humidity % | barometer mb |
| 20260504034723 | 22 | 212 | 3.2 | 4.8 | 0.00 | 0.00 | 0.25 | 95 | 1020.0 |
| 20260504034223 | 22 | 232 | 3.2 | 6.4 | 0.00 | 0.00 | 0.25 | 95 | 1020.0 |
| 20260504033722 | 22 | 241 | 1.6 | 4.8 | 0.00 | 0.00 | 0.25 | 95 | 1020.0 |
| 20260504033223 | 22 | 246 | 3.2 | 6.4 | 0.00 | 0.00 | 0.25 | 95 | 1020.0 |
| 20260504032724 | 22 | 242 | 3.2 | 4.8 | 0.00 | 0.00 | 0.25 | 95 | 1020.0 |
| 20260504032223 | 22 | 229 | 3.2 | 6.4 | 0.00 | 0.00 | 0.25 | 96 | 1020.0 |
| 20260504031723 | 22 | 220 | 1.6 | 4.8 | 0.00 | 0.00 | 0.25 | 95 | 1020.0 |
| 20260504031222 | 22 | 238 | 4.8 | 6.4 | 0.00 | 0.00 | 0.25 | 96 | 1020.0 |
| 20260504030722 | 22 | 249 | 3.2 | 6.4 | 0.00 | 0.00 | 0.25 | 96 | 1020.0 |
| 20260504030222 | 22 | 231 | 1.6 | 4.8 | 0.00 | 0.00 | 0.25 | 95 | 1020.0 |
| 20260504025235 | 22 | 251 | 1.6 | 4.8 | 0.00 | 0.00 | 0.25 | 95 | 1020.0 |
| 20260504024723 | 22 | 256 | 0.0 | 0.0 | 0.00 | 0.00 | 0.25 | 95 | 1020.0 |
| 20260504024222 | 22 | 240 | 0.0 | 0.0 | 0.00 | 0.00 | 0.25 | 95 | 1020.0 |
| 20260504023722 | 23 | 292 | 1.6 | 3.2 | 0.00 | 0.00 | 0.25 | 95 | 1020.0 |
| 20260504023222 | 23 | 239 | 1.6 | 3.2 | 0.00 | 0.00 | 0.25 | 95 | 1020.0 |
| 20260504022722 | 22 | 255 | 0.0 | 3.2 | 0.00 | 0.00 | 0.25 | 95 | 1020.0 |
| 20260504022222 | 23 | 257 | 0.0 | 3.2 | 0.00 | 0.00 | 0.25 | 95 | 1019.0 |
| 20260504021722 | 23 | 239 | 0.0 | 1.6 | 0.00 | 0.00 | 0.25 | 95 | 1019.0 |
| 20260504021222 | 23 | 334 | 0.0 | 0.0 | 0.00 | 0.00 | 0.25 | 95 | 1019.0 |
| 20260504020722 | 23 | 34 | 0.0 | 0.0 | 0.00 | 0.00 | 0.25 | 95 | 1019.0 |
| 20260504020223 | 22 | 313 | 0.0 | 0.0 | 0.00 | 0.00 | 0.25 | 95 | 1019.0 |
| 20260504015722 | 22 | 341 | 0.0 | 3.2 | 0.00 | 0.00 | 0.25 | 94 | 1019.0 |
| 20260504015222 | 22 | 354 | 0.0 | 4.8 | 0.00 | 0.00 | 0.25 | 94 | 1019.0 |
| 20260504014722 | 22 | 39 | 3.2 | 6.4 | 0.00 | 0.00 | 0.25 | 94 | 1019.0 |
| 20260504014222 | 22 | 42 | 3.2 | 6.4 | 0.00 | 0.00 | 0.25 | 94 | 1019.0 |
| 20260504013722 | 22 | 36 | 1.6 | 4.8 | 0.00 | 0.00 | 0.25 | 94 | 1019.0 |
| 20260504013222 | 22 | 55 | 3.2 | 6.4 | 0.00 | 0.00 | 0.25 | 95 | 1019.0 |
| 20260504012722 | 22 | 53 | 1.6 | 4.8 | 0.00 | 0.00 | 0.25 | 95 | 1019.0 |
| 20260504012225 | 22 | 35 | 3.2 | 6.4 | 0.00 | 0.00 | 0.25 | 94 | 1019.0 |
| 20260504011722 | 22 | 29 | 3.2 | 4.8 | 0.00 | 0.00 | 0.25 | 94 | 1019.0 |
| 20260504011223 | 22 | 351 | 1.6 | 4.8 | 0.00 | 0.00 | 0.25 | 94 | 1019.0 |
| 20260504010723 | 22 | 348 | 1.6 | 4.8 | 0.00 | 0.00 | 0.23 | 94 | 1019.0 |
| 20260504010223 | 22 | 357 | 3.2 | 6.4 | 0.00 | 0.00 | 0.23 | 94 | 1019.0 |
| 20260504005723 | 22 | 3 | 3.2 | 4.8 | 0.00 | 0.00 | 0.23 | 94 | 1018.0 |
| 20260504005226 | 22 | 58 | 4.8 | 12.9 | 0.00 | 0.00 | 0.20 | 94 | 1018.0 |
| 20260504004725 | 22 | 31 | 3.2 | 6.4 | 0.00 | 0.00 | 0.20 | 94 | 1018.0 |
| 20260504004222 | 22 | 46 | 4.8 | 6.4 | 0.00 | 0.00 | 0.20 | 94 | 1018.0 |
| 20260504003722 | 22 | 67 | 4.8 | 9.7 | 0.00 | 0.00 | 0.20 | 93 | 1018.0 |
| 20260504003223 | 22 | 46 | 4.8 | 11.3 | 0.00 | 0.00 | 0.20 | 93 | 1018.0 |
| 20260504002722 | 23 | 63 | 8.0 | 14.5 | 0.00 | 0.00 | 0.20 | 93 | 1018.0 |
| 20260504002222 | 23 | 63 | 6.4 | 11.3 | 0.00 | 0.00 | 0.20 | 92 | 1018.0 |
| 20260504001722 | 23 | 20 | 6.4 | 12.9 | 0.00 | 0.00 | 0.20 | 91 | 1018.0 |
| 20260504001222 | 23 | 32 | 12.9 | 20.9 | 0.00 | 0.00 | 0.20 | 90 | 1018.0 |
| 20260504000722 | 23 | 45 | 11.3 | 20.9 | 0.00 | 0.00 | 0.20 | 89 | 1018.0 |
| 20260504000226 | 23 | 4 | 12.9 | 20.9 | 0.00 | 0.00 | 0.20 | 88 | 1018.0 |
| 20260503235722 | 24 | 68 | 12.9 | 17.7 | 0.00 | 0.00 | 0.20 | 86 | 1018.0 |
| 20260503235222 | 24 | 60 | 11.3 | 17.7 | 0.00 | 0.00 | 0.20 | 84 | 1017.0 |
| 20260503234722 | 25 | 7 | 8.0 | 12.9 | 0.00 | 0.00 | 0.20 | 81 | 1017.0 |
| 20260503234222 | 25 | 58 | 11.3 | 16.1 | 0.00 | 0.00 | 0.20 | 81 | 1017.0 |
| 20260503233722 | 25 | 96 | 9.7 | 14.5 | 0.00 | 0.00 | 0.20 | 80 | 1017.0 |
| 20260503233222 | 25 | 17 | 9.7 | 16.1 | 0.00 | 0.00 | 0.20 | 80 | 1017.0 |
| 20260503232722 | 25 | 59 | 9.7 | 14.5 | 0.00 | 0.00 | 0.20 | 80 | 1017.0 |
| 20260503232222 | 25 | 17 | 9.7 | 12.9 | 0.00 | 0.00 | 0.20 | 80 | 1017.0 |
| 20260503231722 | 25 | 4 | 9.7 | 16.1 | 0.00 | 0.00 | 0.20 | 79 | 1017.0 |
| 20260503231222 | 25 | 37 | 12.9 | 19.3 | 0.00 | 0.00 | 0.20 | 79 | 1017.0 |
| 20260503230722 | 25 | 30 | 11.3 | 16.1 | 0.00 | 0.00 | 0.20 | 80 | 1017.0 |
| 20260503230222 | 25 | 50 | 9.7 | 14.5 | 0.00 | 0.00 | 0.20 | 79 | 1017.0 |
| 20260503225722 | 25 | 51 | 9.7 | 16.1 | 0.00 | 0.00 | 0.20 | 79 | 1017.0 |
| 20260503225222 | 25 | 75 | 11.3 | 16.1 | 0.00 | 0.00 | 0.20 | 78 | 1017.0 |
| 20260503224722 | 25 | 64 | 8.0 | 17.7 | 0.00 | 0.00 | 0.20 | 78 | 1017.0 |
| 20260503224222 | 26 | 58 | 8.0 | 11.3 | 0.00 | 0.00 | 0.20 | 78 | 1017.0 |
| 20260503223722 | 26 | 75 | 6.4 | 11.3 | 0.00 | 0.00 | 0.20 | 78 | 1017.0 |
| 20260503223223 | 26 | 56 | 6.4 | 12.9 | 0.00 | 0.00 | 0.20 | 78 | 1017.0 |
| 20260503222722 | 26 | 97 | 8.0 | 14.5 | 0.00 | 0.00 | 0.20 | 77 | 1017.0 |
| 20260503222222 | 26 | 91 | 8.0 | 17.7 | 0.00 | 0.00 | 0.20 | 76 | 1017.0 |
| 20260503221722 | 26 | 101 | 4.8 | 8.0 | 0.00 | 0.00 | 0.20 | 76 | 1017.0 |
| 20260503221222 | 27 | 110 | 1.6 | 3.2 | 0.00 | 0.00 | 0.20 | 77 | 1017.0 |
| 20260503220723 | 26 | 148 | 1.6 | 3.2 | 0.00 | 0.00 | 0.20 | 77 | 1017.0 |
| 20260503220222 | 26 | 126 | 1.6 | 4.8 | 0.00 | 0.00 | 0.20 | 77 | 1017.0 |
| 20260503215722 | 26 | 342 | 1.6 | 4.8 | 0.00 | 0.00 | 0.20 | 78 | 1017.0 |
| 20260503215222 | 26 | 127 | 3.2 | 4.8 | 0.00 | 0.00 | 0.20 | 76 | 1017.0 |
| 20260503214722 | 26 | 46 | 1.6 | 6.4 | 0.00 | 0.00 | 0.20 | 78 | 1017.0 |
| 20260503214223 | 27 | 87 | 3.2 | 6.4 | 0.00 | 0.00 | 0.20 | 78 | 1017.0 |
| 20260503213722 | 27 | 179 | 3.2 | 6.4 | 0.00 | 0.00 | 0.20 | 77 | 1017.0 |
| 20260503213222 | 27 | 129 | 3.2 | 4.8 | 0.00 | 0.00 | 0.20 | 77 | 1017.0 |
| 20260503212722 | 27 | 137 | 3.2 | 6.4 | 0.00 | 0.00 | 0.20 | 78 | 1017.0 |
| 20260503212222 | 27 | 197 | 3.2 | 8.0 | 0.00 | 0.00 | 0.20 | 78 | 1017.0 |
| 20260503211723 | 27 | 285 | 3.2 | 6.4 | 0.00 | 0.00 | 0.20 | 80 | 1018.0 |
| 20260503211222 | 26 | 116 | 4.8 | 8.0 | 0.00 | 0.00 | 0.20 | 77 | 1017.0 |
| 20260503210722 | 27 | 100 | 4.8 | 8.0 | 0.00 | 0.00 | 0.20 | 76 | 1018.0 |
| 20260503210223 | 27 | 182 | 6.4 | 9.7 | 0.00 | 0.00 | 0.20 | 77 | 1018.0 |
| 20260503205722 | 27 | 233 | 6.4 | 11.3 | 0.00 | 0.00 | 0.20 | 79 | 1018.0 |
| 20260503205223 | 27 | 153 | 4.8 | 8.0 | 0.00 | 0.00 | 0.20 | 77 | 1018.0 |
| 20260503204722 | 27 | 200 | 3.2 | 6.4 | 0.00 | 0.00 | 0.20 | 79 | 1018.0 |
| 20260503204222 | 26 | 173 | 3.2 | 6.4 | 0.00 | 0.00 | 0.20 | 80 | 1018.0 |
| 20260503203723 | 26 | 159 | 4.8 | 9.7 | 0.00 | 0.00 | 0.20 | 80 | 1018.0 |
| 20260503203222 | 26 | 199 | 6.4 | 11.3 | 0.00 | 0.00 | 0.20 | 80 | 1018.0 |
| 20260503202722 | 26 | 157 | 4.8 | 6.4 | 0.00 | 0.00 | 0.20 | 80 | 1018.0 |
| 20260503202223 | 26 | 167 | 3.2 | 4.8 | 0.00 | 0.00 | 0.20 | 80 | 1019.0 |
| 20260503201722 | 26 | 198 | 0.0 | 3.2 | 0.00 | 0.00 | 0.20 | 79 | 1019.0 |
| 20260503201222 | 26 | 336 | 0.0 | 3.2 | 0.00 | 0.00 | 0.20 | 80 | 1019.0 |
| 20260503200722 | 26 | 309 | 1.6 | 4.8 | 0.00 | 0.00 | 0.20 | 81 | 1019.0 |
| 20260503200222 | 26 | 186 | 3.2 | 6.4 | 0.00 | 0.00 | 0.20 | 81 | 1019.0 |
| 20260503195722 | 26 | 166 | 3.2 | 6.4 | 0.00 | 0.00 | 0.20 | 82 | 1019.0 |
| 20260503195222 | 26 | 154 | 3.2 | 6.4 | 0.00 | 0.00 | 0.20 | 82 | 1019.0 |
| 20260503194722 | 26 | 158 | 3.2 | 6.4 | 0.00 | 0.00 | 0.20 | 83 | 1019.0 |
| 20260503194223 | 26 | 176 | 3.2 | 8.0 | 0.00 | 0.00 | 0.20 | 82 | 1019.0 |
| 20260503193723 | 26 | 128 | 3.2 | 6.4 | 0.00 | 0.00 | 0.20 | 82 | 1019.0 |
| 20260503193222 | 26 | 175 | 4.8 | 9.7 | 0.00 | 0.00 | 0.20 | 83 | 1019.0 |
| 20260503192722 | 26 | 213 | 4.8 | 8.0 | 0.00 | 0.00 | 0.20 | 83 | 1019.0 |
| 20260503192223 | 26 | 186 | 3.2 | 6.4 | 0.00 | 0.00 | 0.20 | 84 | 1019.0 |
| 20260503191722 | 25 | 129 | 3.2 | 8.0 | 0.00 | 0.00 | 0.20 | 86 | 1019.0 |
| 20260503191223 | 25 | 130 | 4.8 | 9.7 | 0.00 | 0.00 | 0.20 | 86 | 1019.0 |
| 20260503190722 | 25 | 107 | 4.8 | 8.0 | 0.00 | 0.00 | 0.20 | 87 | 1020.0 |
| 20260503190222 | 25 | 116 | 4.8 | 9.7 | 0.00 | 0.00 | 0.20 | 86 | 1020.0 |
| 20260503185722 | 25 | 110 | 4.8 | 9.7 | 0.00 | 0.00 | 0.20 | 87 | 1020.0 |
| 20260503185222 | 25 | 130 | 4.8 | 9.7 | 0.00 | 0.00 | 0.20 | 87 | 1020.0 |
| 20260503184723 | 25 | 157 | 4.8 | 9.7 | 0.00 | 0.00 | 0.20 | 88 | 1020.0 |
| 20260503184222 | 25 | 125 | 4.8 | 9.7 | 0.00 | 0.00 | 0.20 | 87 | 1020.0 |
| 20260503183723 | 25 | 129 | 6.4 | 9.7 | 0.00 | 0.00 | 0.20 | 87 | 1020.0 |
| 20260503183222 | 25 | 104 | 4.8 | 8.0 | 0.00 | 0.00 | 0.20 | 88 | 1020.0 |
| 20260503182722 | 25 | 91 | 4.8 | 9.7 | 0.00 | 0.00 | 0.20 | 88 | 1020.0 |
| 20260503182222 | 25 | 73 | 3.2 | 6.4 | 0.00 | 0.00 | 0.20 | 89 | 1020.0 |
| 20260503181722 | 25 | 121 | 4.8 | 9.7 | 0.00 | 0.00 | 0.20 | 88 | 1020.0 |
| 20260503181224 | 25 | 132 | 4.8 | 8.0 | 0.00 | 0.00 | 0.20 | 88 | 1021.0 |
| 20260503180723 | 25 | 87 | 4.8 | 9.7 | 0.00 | 0.00 | 0.20 | 87 | 1020.0 |
| 20260503180222 | 25 | 126 | 3.2 | 6.4 | 0.00 | 0.00 | 0.20 | 88 | 1021.0 |
| 20260503175722 | 25 | 125 | 3.2 | 6.4 | 0.00 | 0.00 | 0.20 | 89 | 1021.0 |
| 20260503175222 | 24 | 114 | 4.8 | 8.0 | 0.00 | 0.00 | 0.20 | 88 | 1021.0 |
| 20260503174723 | 25 | 146 | 1.6 | 6.4 | 0.00 | 0.00 | 0.20 | 88 | 1021.0 |
| 20260503174222 | 24 | 13 | 3.2 | 4.8 | 0.00 | 0.00 | 0.20 | 89 | 1021.0 |
| 20260503173722 | 25 | 147 | 3.2 | 6.4 | 0.00 | 0.00 | 0.20 | 88 | 1021.0 |
| 20260503173224 | 24 | 203 | 3.2 | 4.8 | 0.00 | 0.00 | 0.18 | 89 | 1021.0 |
| 20260503172722 | 24 | 225 | 1.6 | 4.8 | 0.00 | 0.00 | 0.18 | 89 | 1021.0 |
| 20260503172222 | 24 | 195 | 3.2 | 4.8 | 0.00 | 0.00 | 0.18 | 90 | 1021.0 |
| 20260503171723 | 24 | 84 | 3.2 | 6.4 | 0.00 | 0.00 | 0.18 | 90 | 1021.0 |
| 20260503171222 | 24 | 338 | 0.0 | 3.2 | 0.00 | 0.00 | 0.18 | 92 | 1021.0 |
| 20260503170722 | 24 | 162 | 1.6 | 4.8 | 0.00 | 0.00 | 0.18 | 92 | 1021.0 |
| 20260503170222 | 24 | 114 | 3.2 | 6.4 | 0.00 | 0.00 | 0.18 | 92 | 1021.0 |
| 20260503150722 | 24 | 70 | 6.4 | 12.9 | 0.00 | 0.00 | 0.00 | 91 | 1021.0 |
| 20260503150224 | 24 | 70 | 6.4 | 11.3 | 0.00 | 0.00 | 0.00 | 89 | 1021.0 |
| 20260503140222 | 23 | 86 | 9.7 | 14.5 | 0.00 | 0.00 | 0.00 | 91 | 1020.0 |
| 20260503131222 | 23 | 92 | 4.8 | 9.7 | 0.00 | 0.00 | 0.00 | 91 | 1019.0 |
| 20260503130722 | 23 | 103 | 6.4 | 11.3 | 0.00 | 0.00 | 0.00 | 91 | 1018.0 |
| 20260503130223 | 23 | 141 | 4.8 | 11.3 | 0.00 | 0.00 | 0.00 | 91 | 1018.0 |
| 20260503120222 | 23 | 161 | 6.4 | 9.7 | 0.00 | 0.00 | 0.00 | 91 | 1017.0 |
| 20260503110722 | 23 | 121 | 1.6 | 3.2 | 0.00 | 0.00 | 0.00 | 89 | 1017.0 |
| 20260503110222 | 23 | 155 | 3.2 | 4.8 | 0.00 | 0.00 | 0.00 | 89 | 1017.0 |
| 20260503100222 | 23 | 129 | 6.4 | 9.7 | 0.00 | 0.00 | 0.00 | 84 | 1017.0 |
| 20260503090222 | 24 | 165 | 4.8 | 11.3 | 0.00 | 0.00 | 0.00 | 82 | 1017.0 |
| 20260503081222 | 24 | 153 | 4.8 | 8.0 | 0.00 | 0.00 | 0.00 | 81 | 1017.0 |
| 20260503080722 | 24 | 246 | 4.8 | 9.7 | 0.00 | 0.00 | 0.00 | 81 | 1017.0 |
| 20260503080222 | 24 | 213 | 6.4 | 11.3 | 0.00 | 0.00 | 0.00 | 81 | 1017.0 |
| 20260503072722 | 24 | 200 | 4.8 | 9.7 | 0.00 | 0.00 | 0.00 | 82 | 1018.0 |
| 20260503072222 | 24 | 172 | 3.2 | 8.0 | 0.00 | 0.00 | 0.00 | 82 | 1018.0 |
| 20260503071723 | 24 | 194 | 4.8 | 9.7 | 0.00 | 0.00 | 0.00 | 82 | 1018.0 |
| 20260503071222 | 25 | 231 | 4.8 | 11.3 | 0.00 | 0.00 | 0.00 | 81 | 1018.0 |
| 20260503070722 | 25 | 184 | 4.8 | 11.3 | 0.00 | 0.00 | 0.00 | 81 | 1018.0 |
| 20260503070222 | 24 | 154 | 4.8 | 11.3 | 0.00 | 0.00 | 0.00 | 81 | 1018.0 |
| 20260503060222 | 25 | 149 | 4.8 | 9.7 | 0.00 | 0.00 | 0.00 | 79 | 1019.0 |
| 20260503054723 | 25 | 126 | 4.8 | 9.7 | 0.00 | 0.00 | 0.00 | 79 | 1018.0 |
| 20260503054222 | 25 | 151 | 4.8 | 11.3 | 0.00 | 0.00 | 0.00 | 78 | 1018.0 |
| 20260503053722 | 25 | 151 | 4.8 | 9.7 | 0.00 | 0.00 | 0.00 | 78 | 1018.0 |
| 20260503053222 | 25 | 167 | 3.2 | 6.4 | 0.00 | 0.00 | 0.00 | 78 | 1018.0 |
| 20260503052722 | 25 | 334 | 3.2 | 8.0 | 0.00 | 0.00 | 0.00 | 78 | 1018.0 |
| 20260503052222 | 25 | 175 | 3.2 | 8.0 | 0.00 | 0.00 | 0.00 | 78 | 1018.0 |
| 20260503051723 | 25 | 177 | 3.2 | 8.0 | 0.00 | 0.00 | 0.00 | 78 | 1018.0 |
| 20260503051222 | 25 | 217 | 3.2 | 6.4 | 0.00 | 0.00 | 0.00 | 78 | 1018.0 |
| 20260503050722 | 25 | 145 | 3.2 | 6.4 | 0.00 | 0.00 | 0.00 | 78 | 1018.0 |
| 20260503050222 | 25 | 173 | 3.2 | 6.4 | 0.00 | 0.00 | 0.00 | 78 | 1018.0 |
| 20260503045723 | 25 | 214 | 4.8 | 9.7 | 0.00 | 0.00 | 0.00 | 78 | 1018.0 |
| 20260503045222 | 25 | 139 | 4.8 | 11.3 | 0.00 | 0.00 | 0.00 | 78 | 1018.0 |
| 20260503044723 | 25 | 109 | 3.2 | 8.0 | 0.00 | 0.00 | 0.00 | 77 | 1018.0 |
| 20260503044222 | 25 | 228 | 4.8 | 8.0 | 0.00 | 0.00 | 0.00 | 77 | 1018.0 |
| 20260503043722 | 25 | 189 | 4.8 | 11.3 | 0.00 | 0.00 | 0.00 | 77 | 1018.0 |
| 20260503043223 | 25 | 164 | 4.8 | 11.3 | 0.00 | 0.00 | 0.00 | 77 | 1018.0 |
| 20260503042722 | 25 | 197 | 4.8 | 8.0 | 0.00 | 0.00 | 0.00 | 77 | 1018.0 |
| 20260503042222 | 25 | 198 | 4.8 | 9.7 | 0.00 | 0.00 | 0.00 | 77 | 1018.0 |
| 20260503041223 | 25 | 150 | 6.4 | 9.7 | 0.00 | 0.00 | 0.00 | 76 | 1018.0 |
| 20260503040721 | 25 | 210 | 8.0 | 12.9 | 0.00 | 0.00 | 0.00 | 76 | 1017.0 |
| 20260503040222 | 25 | 176 | 8.0 | 12.9 | 0.00 | 0.00 | 0.00 | 75 | 1017.0 |
| 20260503035722 | 25 | 194 | 6.4 | 9.7 | 0.00 | 0.00 | 0.00 | 75 | 1017.0 |
| 20260503035222 | 25 | 187 | 4.8 | 11.3 | 0.00 | 0.00 | 0.00 | 75 | 1017.0 |